SAS1630 EDDL-EKCH

Flight info

Callsign SAS1630
Flight time 1h 1m
Altitude 37000
Route MEVEL4T/23L MEVEL Y850 BASUM M170 STADE DCT MEGAR P605 GESKA Z711 MONAK
Aircraft A319/M-SDE2E3FGIJ1RWXY/E

Departure

Time 2026-05-04 08:21
Airport Düsseldorf Airport (EDDL)

Arrival

Time 2026-05-04 09:22
Airport Copenhagen Kastrup Airport (EKCH)
Time Latitude Longitude Altitude Speed Heading
2026-05-04 07:55 51.28059 6.76706 129 ft 0 kts 275°
2026-05-04 08:10 51.28087 6.76803 130 ft 4 kts 197°
2026-05-04 08:11 51.28113 6.76814 128 ft 4 kts 194°
2026-05-04 08:11 51.28165 6.76832 126 ft 4 kts 190°
2026-05-04 08:11 51.28192 6.76839 127 ft 4 kts 188°
2026-05-04 08:12 51.28219 6.76845 127 ft 4 kts 186°
2026-05-04 08:12 51.28246 6.76848 125 ft 4 kts 184°
2026-05-04 08:12 51.28268 6.76851 128 ft 4 kts 188°
2026-05-04 08:12 51.28294 6.76861 129 ft 4 kts 200°
2026-05-04 08:13 51.28318 6.76879 124 ft 4 kts 216°
2026-05-04 08:13 51.28338 6.76907 129 ft 4 kts 232°
2026-05-04 08:13 51.28352 6.76943 132 ft 4 kts 242°
2026-05-04 08:13 51.28362 6.76971 129 ft 0 kts 231°
2026-05-04 08:16 51.28368 6.76872 132 ft 9 kts 317°
2026-05-04 08:16 51.28429 6.76797 122 ft 11 kts 321°
2026-05-04 08:16 51.28497 6.76795 124 ft 12 kts 40°
2026-05-04 08:17 51.28550 6.76903 128 ft 13 kts 52°
2026-05-04 08:17 51.28610 6.77030 129 ft 15 kts 53°
2026-05-04 08:17 51.28681 6.77178 127 ft 18 kts 52°
2026-05-04 08:17 51.28761 6.77345 132 ft 17 kts 53°
2026-05-04 08:19 51.29289 6.78455 147 ft 19 kts 52°
2026-05-04 08:19 51.29367 6.78569 152 ft 16 kts 19°
2026-05-04 08:20 51.29479 6.78563 152 ft 13 kts 353°
2026-05-04 08:20 51.29512 6.78458 150 ft 15 kts 243°
2026-05-04 08:20 51.29345 6.78106 141 ft 75 kts 233°
2026-05-04 08:20 51.28899 6.77172 129 ft 137 kts 232°
2026-05-04 08:21 51.28279 6.75865 544 ft 148 kts 233°
2026-05-04 08:21 51.27654 6.74555 1197 ft 148 kts 232°
2026-05-04 08:21 51.27018 6.73217 1711 ft 158 kts 235°
2026-05-04 08:21 51.26734 6.71460 2099 ft 178 kts 276°
2026-05-04 08:22 51.27358 6.69656 2518 ft 199 kts 321°
2026-05-04 08:22 51.28614 6.68723 3315 ft 201 kts 347°
2026-05-04 08:24 51.40976 6.69685 8927 ft 287 kts 359°
2026-05-04 08:24 51.42970 6.69688 9844 ft 292 kts 359°
2026-05-04 08:24 51.45042 6.69661 10504 ft 308 kts 358°
2026-05-04 08:24 51.47260 6.69625 10928 ft 328 kts 358°
2026-05-04 08:25 51.49568 6.69596 11656 ft 335 kts 358°
2026-05-04 08:25 51.51920 6.69583 12451 ft 341 kts 358°
2026-05-04 08:25 51.54307 6.69587 13244 ft 345 kts 358°
2026-05-04 08:25 51.56725 6.69605 14006 ft 350 kts 359°
2026-05-04 08:26 51.59158 6.70077 14738 ft 356 kts 12°
2026-05-04 08:27 51.71614 6.90520 19464 ft 388 kts 53°
2026-05-04 08:28 51.73232 6.94043 20076 ft 393 kts 53°
2026-05-04 08:28 51.74867 6.97608 20682 ft 397 kts 53°
2026-05-04 08:28 51.76516 7.01212 21279 ft 401 kts 53°
2026-05-04 08:28 51.78155 7.04805 21841 ft 405 kts 53°
2026-05-04 08:29 51.79832 7.08486 22401 ft 409 kts 54°
2026-05-04 08:29 51.81522 7.12212 22940 ft 412 kts 54°
2026-05-04 08:29 51.83226 7.15976 23478 ft 416 kts 54°
2026-05-04 08:31 51.97233 7.40786 26931 ft 437 kts 46°
2026-05-04 08:33 52.12219 7.66326 29972 ft 455 kts 45°
2026-05-04 08:33 52.14429 7.70024 30373 ft 457 kts 45°
2026-05-04 08:35 52.30055 7.96504 33172 ft 464 kts 46°
2026-05-04 08:35 52.32274 8.00330 33622 ft 463 kts 46°
2026-05-04 08:35 52.34492 8.04149 34065 ft 463 kts 46°
2026-05-04 08:35 52.36707 8.07967 34506 ft 462 kts 46°
2026-05-04 08:37 52.49917 8.30868 36737 ft 461 kts 46°
2026-05-04 08:37 52.52115 8.34702 36958 ft 459 kts 46°
2026-05-04 08:38 52.56453 8.42274 36998 ft 452 kts 46°
2026-05-04 08:38 52.60745 8.49789 36999 ft 450 kts 46°
2026-05-04 08:40 52.78114 8.79402 36998 ft 449 kts 33°
2026-05-04 08:41 52.83542 8.84507 36998 ft 448 kts 27°
2026-05-04 08:41 52.88992 8.89384 36999 ft 448 kts 27°
2026-05-04 08:42 52.94473 8.94326 36999 ft 448 kts 27°
2026-05-04 08:42 52.99949 8.99272 37001 ft 448 kts 27°
2026-05-04 08:43 53.05419 9.04224 36999 ft 448 kts 27°
2026-05-04 08:43 53.10900 9.09202 36994 ft 448 kts 27°
2026-05-04 08:44 53.16327 9.14146 36989 ft 447 kts 27°
2026-05-04 08:46 53.38170 9.34168 36989 ft 448 kts 27°
2026-05-04 08:46 53.43633 9.39224 36992 ft 449 kts 27°
2026-05-04 08:47 53.48926 9.44790 36993 ft 450 kts 39°
2026-05-04 08:47 53.53144 9.52553 36993 ft 451 kts 52°
2026-05-04 08:48 53.56985 9.60899 36991 ft 451 kts 52°
2026-05-04 08:48 53.60826 9.69262 36993 ft 452 kts 52°
2026-05-04 08:49 53.64659 9.77655 36989 ft 452 kts 52°
2026-05-04 08:50 53.77980 10.07081 36987 ft 452 kts 52°
2026-05-04 08:51 53.81795 10.15556 36987 ft 453 kts 52°
2026-05-04 08:51 53.85590 10.23999 36987 ft 453 kts 53°
2026-05-04 08:52 53.89493 10.32367 36989 ft 452 kts 44°
2026-05-04 08:52 53.93985 10.39832 36992 ft 451 kts 44°
2026-05-04 08:54 54.11897 10.69785 36481 ft 452 kts 44°
2026-05-04 08:55 54.14137 10.73546 36229 ft 453 kts 44°
2026-05-04 08:55 54.16394 10.77346 35980 ft 457 kts 44°
2026-05-04 08:55 54.18630 10.81124 35737 ft 460 kts 44°
2026-05-04 08:55 54.20909 10.84983 35483 ft 461 kts 44°
2026-05-04 08:57 54.35826 11.10404 32229 ft 448 kts 44°
2026-05-04 09:01 54.67429 11.55986 26741 ft 406 kts 36°
2026-05-04 09:01 54.69642 11.58999 26319 ft 404 kts 37°
2026-05-04 09:01 54.71847 11.61999 25888 ft 402 kts 37°
2026-05-04 09:01 54.74041 11.64990 25462 ft 400 kts 37°
2026-05-04 09:02 54.76215 11.67966 25025 ft 398 kts 37°
2026-05-04 09:02 54.78380 11.70935 24571 ft 396 kts 37°
2026-05-04 09:02 54.80532 11.73884 24127 ft 393 kts 37°
2026-05-04 09:02 54.82675 11.76820 23659 ft 392 kts 37°
2026-05-04 09:03 54.84807 11.79747 23204 ft 390 kts 37°
2026-05-04 09:03 54.86901 11.82625 22742 ft 388 kts 37°
2026-05-04 09:03 54.89011 11.85531 22283 ft 386 kts 37°
2026-05-04 09:03 54.91108 11.88423 21815 ft 383 kts 37°
2026-05-04 09:04 54.93188 11.91294 21355 ft 381 kts 37°
2026-05-04 09:04 54.95254 11.94152 20894 ft 378 kts 37°
2026-05-04 09:04 54.97304 11.96987 20432 ft 375 kts 37°
2026-05-04 09:04 54.99344 11.99809 19973 ft 373 kts 37°
2026-05-04 09:05 55.01366 12.02617 19522 ft 371 kts 37°
2026-05-04 09:05 55.03376 12.05417 19046 ft 368 kts 37°
2026-05-04 09:05 55.05369 12.08202 18606 ft 366 kts 37°
2026-05-04 09:05 55.07347 12.10962 18159 ft 363 kts 37°
2026-05-04 09:06 55.09289 12.13672 17718 ft 360 kts 37°
2026-05-04 09:07 55.22636 12.32368 14682 ft 342 kts 37°
2026-05-04 09:08 55.24486 12.34978 14265 ft 341 kts 37°
2026-05-04 09:08 55.26323 12.37577 13816 ft 338 kts 37°
2026-05-04 09:08 55.28146 12.40159 13404 ft 336 kts 37°
2026-05-04 09:08 55.29959 12.42724 12979 ft 334 kts 37°
2026-05-04 09:09 55.31740 12.45241 12560 ft 332 kts 37°
2026-05-04 09:09 55.33535 12.47783 12134 ft 331 kts 37°
2026-05-04 09:09 55.35321 12.50316 11700 ft 329 kts 37°
2026-05-04 09:09 55.37097 12.52842 11280 ft 327 kts 37°
2026-05-04 09:10 55.38862 12.55356 10855 ft 326 kts 37°
2026-05-04 09:10 55.40614 12.57855 10440 ft 323 kts 37°
2026-05-04 09:10 55.42352 12.60335 10034 ft 321 kts 37°
2026-05-04 09:10 55.44079 12.62796 9600 ft 318 kts 37°
2026-05-04 09:11 55.45792 12.65245 9177 ft 316 kts 37°
2026-05-04 09:11 55.47492 12.67682 8757 ft 313 kts 37°
2026-05-04 09:11 55.49177 12.70098 8328 ft 311 kts 37°
2026-05-04 09:11 55.50846 12.72497 7906 ft 308 kts 37°
2026-05-04 09:12 55.52505 12.74883 7496 ft 305 kts 37°
2026-05-04 09:12 55.54124 12.77206 7110 ft 302 kts 37°
2026-05-04 09:14 55.65249 12.93290 4347 ft 289 kts 37°
2026-05-04 09:14 55.66803 12.95547 3951 ft 288 kts 38°
2026-05-04 09:14 55.68344 12.97791 3557 ft 286 kts 38°
2026-05-04 09:14 55.69881 13.00026 3178 ft 285 kts 38°
2026-05-04 09:15 55.71389 13.02220 3013 ft 275 kts 38°
2026-05-04 09:15 55.72877 13.04124 2989 ft 258 kts 23°
2026-05-04 09:15 55.74532 13.04684 2999 ft 234 kts 351°
2026-05-04 09:15 55.75949 13.03674 2992 ft 212 kts 317°
2026-05-04 09:17 55.75166 12.86422 2998 ft 192 kts 223°
2026-05-04 09:18 55.74189 12.84901 2941 ft 184 kts 223°
2026-05-04 09:18 55.73241 12.83420 2770 ft 180 kts 223°
2026-05-04 09:18 55.72303 12.81954 2557 ft 179 kts 223°
2026-05-04 09:18 55.71385 12.80522 2376 ft 175 kts 223°
2026-05-04 09:19 55.70470 12.79093 2096 ft 175 kts 223°
2026-05-04 09:19 55.69561 12.77678 1856 ft 170 kts 223°
2026-05-04 09:19 55.68690 12.76322 1635 ft 162 kts 223°
2026-05-04 09:19 55.67861 12.75033 1421 ft 154 kts 223°
2026-05-04 09:20 55.67086 12.73826 1225 ft 142 kts 223°
2026-05-04 09:20 55.66384 12.72733 1044 ft 130 kts 223°
2026-05-04 09:20 55.65717 12.71696 868 ft 126 kts 223°
2026-05-04 09:20 55.65059 12.70680 702 ft 125 kts 223°
2026-05-04 09:21 55.64408 12.69669 550 ft 124 kts 223°
2026-05-04 09:21 55.63766 12.68678 396 ft 125 kts 223°
2026-05-04 09:21 55.63121 12.67667 222 ft 124 kts 223°
2026-05-04 09:21 55.62477 12.66665 49 ft 123 kts 222°
2026-05-04 09:22 55.61904 12.65779 18 ft 91 kts 221°
2026-05-04 09:22 55.61556 12.65237 16 ft 42 kts 221°
2026-05-04 09:22 55.61367 12.64941 20 ft 39 kts 226°
2026-05-04 09:22 55.61244 12.64585 17 ft 29 kts 252°
2026-05-04 09:23 55.61198 12.64330 17 ft 16 kts 252°
2026-05-04 09:23 55.61207 12.64132 20 ft 19 kts 314°
2026-05-04 09:23 55.61332 12.64172 18 ft 21 kts 32°
2026-05-04 09:23 55.61459 12.64318 19 ft 19 kts 33°
2026-05-04 09:25 55.62296 12.65205 17 ft 18 kts
2026-05-04 09:25 55.62430 12.65200 18 ft 19 kts 358°
2026-05-04 09:26 55.62545 12.65197 17 ft 14 kts 359°
2026-05-04 09:26 55.62618 12.65197 20 ft 10 kts
2026-05-04 09:26 55.62657 12.65279 17 ft 7 kts 59°
2026-05-04 09:26 55.62694 12.65314 17 ft 6 kts 13°
2026-05-04 09:27 55.62717 12.65325 17 ft 2 kts 16°
2026-05-04 09:27 55.62722 12.65328 17 ft 0 kts 16°